Regional Weather Roundup
Issued by NWS Green Bay, WI

Home | Current Version | Previous Version | Graphics & Text | Print | Product List | Glossary Off
Versions: 1 2 3 4 5 6 7 8 9 10 11 12 13 14 15 16 17 18 19 20 21 22 23 24 25 26 27 28 29 30 31 32 33 34 35 36 37 38 39 40 41 42 43 44 45 46 47 48 49 50

000
ASUS43 KGRB 261200
RWRGRB

NORTH-CENTRAL AND NORTHEAST WISCONSIN REGIONAL WEATHER ROUNDUP
NATIONAL WEATHER SERVICE GREEN BAY WI
700 AM CDT THU APR 26 2018

WIZ005-009-010>012-018-019-261300-
NORTH CENTRAL WISCONSIN

CITY           SKY/WX    TMP DP  RH WIND       PRES   REMARKS
IRONWOOD       FAIR      42  26  53 SW9       29.83S
MANITOWISH WTR NOT AVBL
ARBOR VITAE    NOT AVBL
EAGLE RIVER    FAIR      27  22  84 CALM      29.85F
LAND O LAKES   FAIR      27  24  89 CALM      29.87S
RHINELANDER    FAIR      35  27  72 SW5       29.86S
PHILLIPS       FAIR      30  26  84 CALM      29.86S
ANTIGO         NOT AVBL
TOMAHAWK       NOT AVBL
MERRILL        NOT AVBL
$$

WIZ013-073-261300-
NORTHEAST WISCONSIN

CITY           SKY/WX    TMP DP  RH WIND       PRES   REMARKS
IRON MOUNTAIN  FAIR      30  26  85 CALM      29.85F
MARINETTE      NOT AVBL
$$

WIZ017-030-035>037-045-261300-
CENTRAL WISCONSIN

CITY           SKY/WX    TMP DP  RH WIND       PRES   REMARKS
MEDFORD        NOT AVBL
WAUSAU         FAIR      31  28  89 E3        29.88S
MOSINEE        MOSUNNY   34  28  80 CALM      29.90S
MARSHFIELD     FAIR      35  29  78 CALM      29.88S
WISC RAPIDS    FAIR      31  27  85 CALM      29.91S
STEVENS POINT  NOT AVBL
WAUPACA        FAIR      37  32  84 CALM      29.93R
SHAWANO        NOT AVBL
CLINTONVILLE   FAIR      33  30  87 CALM      29.91S
WAUTOMA        FAIR      30  28  92 CALM      29.94R
$$

WIZ038-039-048-051-261300-
FOX VALLEY

CITY           SKY/WX    TMP DP  RH WIND       PRES   REMARKS
NWS GREEN BAY  FAIR      37  33  85 SW5       29.92R
APPLETON       SUNNY     36  30  80 VRB3      29.91R
OSHKOSH        FAIR      38  32  79 SW6       29.92S
FOND DU LAC    FAIR      38  31  76 SW8       29.94R
$$

WIZ022-050-052-261300-
EAST CENTRAL WISCONSIN

CITY           SKY/WX    TMP DP  RH WIND       PRES   REMARKS
EPHRAIM        NOT AVBL
WASHINGTON ISL NOT AVBL
STURGEON BAY   FAIR      37  30  75 S6        29.91S
MANITOWOC      FAIR      34  29  82 S3        29.94S
SHEBOYGAN      FAIR      33  31  92 S3        29.94R
$$

LMZ563-521-522-541>543-261300-
LAKESHORE

STATION/POSITION TIME  TEMP    WIND        PRES    VSBY  WAVE
                       AIR SEA DIR/SP/G                  HT/PER
                 (UTC) (F)     (DEG/KT/KT) (MB)    (MI)  (FT/S)
SHEBOYGAN LKSHOR 1100   38     200/  7/  7 1014.2F
KEWAUNEE LKSHORE 1130   37     200/  4/  5 1012.6S
NORTHPORT PIER   1140   38                 1012.9S
MENOMINEE LKSHOR 1124   37     210/  4/  5 1012.4
$$




USA.gov is the U.S. government's official web portal to all federal, state and local government web resources and services.